Regional Weather Roundup
Issued by NWS

Home | Current Version | Previous Version | Text Only | Print | Product List | Glossary Off
Versions: 1 2 3 4 5 6 7 8 9 10 11 12 13 14 15 16 17 18 19 20 21 22 23 24 25 26 27 28 29 30 31 32 33 34 35 36 37 38 39 40 41 42 43 44 45 46 47 48 49 50

000
ASUS43 KMKX 010511
RWRWI

WISCONSIN REGIONAL WEATHER ROUNDUP
NATIONAL WEATHER SERVICE MILWAUKEE/SULLIVAN WI
1100 PM CST SAT FEB 28 2015

NOTE: "FAIR" INDICATES FEW OR NO CLOUDS BELOW 12,000 FEET WITH NO
SIGNIFICANT WEATHER AND/OR OBSTRUCTIONS TO VISIBILITY.

WIZ001-002-006>008-014>016-023>028-010600-
NORTHWEST WISCONSIN

CITY           SKY/WX    TMP DP  RH WIND       PRES   REMARKS
SUPERIOR ARPT  MOCLDY    14   3  62 CALM      30.27F
ASHLAND        CLOUDY    13  -1  54 S12       30.29F WCI  -1
HAYWARD        MOCLDY    11   0  61 S13       30.27F WCI  -4
SIREN          CLOUDY    13   4  65 S8G17     30.29F WCI   2
CUMBERLAND     MOCLDY    10   1  67 S7        30.29F WCI   0
RICE LAKE      CLOUDY    13   1  60 S12       30.32F WCI  -1
CHETEK         CLOUDY    13   1  58 S5        30.33F WCI   5
LADYSMITH      PTCLDY    10  -2  58 S6        30.33F WCI   1
EAU CLAIRE     CLOUDY    12  -1  56 S8        30.36F WCI   0
MENOMONIE      CLOUDY    14   2  59 S9        30.35F WCI   2
NEW RICHMOND   CLOUDY    12   4  70 S10       30.32F WCI  -1
OSCEOLA        CLOUDY    13   5  69 S8        30.34F WCI   2
$$

WIZ003>005-009-010-017-018-010600-
NORTH CENTRAL WISCONSIN

CITY           SKY/WX    TMP DP  RH WIND       PRES   REMARKS
MANITOWISH WTR CLOUDY    10  -4  53 S7        30.25F WCI  -1
ARBOR VITAE    CLOUDY    11  -3  51 S7        30.26F WCI   1
WOODRUFF       CLOUDY    11  -3  51 S7        30.26F WCI   1
RHINELANDER    CLOUDY    12  -3  51 SW10      30.28F WCI  -1
EAGLE RIVER    MOCLDY    10  -6  50 CALM      30.26F
LAND O LAKES   CLOUDY    11  -4  51 S5        30.25F WCI   3
PHILLIPS       MOCLDY    10  -3  56 SW8       30.28S WCI  -1
TOMAHAWK       CLOUDY    11  -2  54 CALM      30.30F
MEDFORD        MOCLDY    11  -1  57 S8        30.31F WCI   0
MERRILL        CLOUDY    14  -1  50 SW8       30.32F WCI   3
$$

WIZ029-030-035-036-043>047-010600-
CENTRAL WISCONSIN

CITY           SKY/WX    TMP DP  RH WIND       PRES   REMARKS
WAUSAU         CLOUDY    14   0  53 S7        30.34F WCI   4
MOSINEE        CLOUDY    14   3  62 S12       30.36S WCI   0
MARSHFIELD     CLOUDY    13   0  56 S8        30.35F WCI   2
STEVENS POINT  CLOUDY    12   1  59 S7        30.38F WCI   2
WAUPACA        CLOUDY    17   2  52 S7        30.42F WCI   7
WAUTOMA        CLOUDY    14   1  56 S8        30.42F WCI   3
WISC RAPIDS    CLOUDY    14  -1  51 S10       30.40F WCI   1
CAMP DOUGLAS   CLOUDY    14   1  57 S8        30.40F WCI   2
$$

WIZ011>013-019>022-031-037>040-048>050-010600-
NORTHEAST WISCONSIN

CITY           SKY/WX    TMP DP  RH WIND       PRES   REMARKS
ANTIGO         CLOUDY    11  -1  59 SW10      30.32S WCI  -3
SHAWANO        CLOUDY    16   3  55 SW6       30.41F WCI   8
OCONTO         CLOUDY    15   1  55 SW5       30.42F WCI   7
STURGEON BAY   CLOUDY    14   1  57 S10       30.43F WCI   1
GREEN BAY      CLOUDY    15   2  56 S12       30.43F WCI   2
MANITOWOC      CLOUDY    16   4  59 SW9       30.45F WCI   4
APPLETON       CLOUDY    14   3  62 SW9       30.41F WCI   2
CLINTONVILLE   CLOUDY    16   3  57 S9        30.40F WCI   4
OSHKOSH        CLOUDY    14   3  61 S9        30.43F WCI   2
$$

WIZ032>034-041-042-053>061-010600-
SOUTHWEST WISCONSIN

CITY           SKY/WX    TMP DP  RH WIND       PRES   REMARKS
LA CROSSE      PTCLDY    14   0  53 S7        30.42F WCI   4
SPARTA         MOCLDY    13   1  58 CALM      30.42S
VIROQUA        PTCLDY    11   2  68 S10       30.37F WCI  -3
BOSCOBEL       PTCLDY    11   2  67 W5        30.45F WCI   3
PRAIRIE DU CHI MOCLDY    10   1  67 SE5       30.45S WCI   1
PLATTEVILLE    PTCLDY    10   7  88 E5        30.42F WCI   1
$$

WIZ056-057-062-063-064-067-068-010600-
SOUTH CENTRAL WISCONSIN

CITY           SKY/WX    TMP DP  RH WIND       PRES   REMARKS
REEDSBURG      MOCLDY    12   2  66 S3        30.41F
BARABOO/DELLS  PTCLDY    11   2  65 SW6       30.41F WCI   2
LONE ROCK      CLOUDY     9   1  70 E3        30.44F
MINERAL POINT  FLURRIES  12   9  85 SE6       30.40F WCI   3
MADISON        LGT SNOW  14   8  77 S9        30.43F WCI   2
MIDDLETON      CLOUDY    15  10  77 S7        30.43F WCI   6
WATERTOWN      FLURRIES  14  10  85 CALM      30.44F
MONROE         PTCLDY    12  10  92 SE5       30.41F WCI   4
JANESVILLE     FLURRIES  18  12  79 SE3       30.44F
$$

WIZ051-052-058>065-066-070>072-010600-
SOUTHEAST WISCONSIN

CITY           SKY/WX    TMP DP  RH WIND       PRES   REMARKS
MILWAUKEE      LGT SNOW  17  10  74 SW7       30.47F WCI   8
WAUKESHA       PTCLDY    14   5  67 S6        30.45F WCI   5
MILWAUKEE/TIMM FLURRIES  18   9  68 S8        30.47F WCI   7
RACINE         FLURRIES  18  11  74 SW6       30.49F WCI  10
BURLINGTON     FLURRIES  14  10  81 CALM      30.45F
KENOSHA        CLOUDY    17  12  80 SW5       30.47F WCI  10
FOND DU LAC    CLOUDY    16   2  54 S10       30.44F WCI   4
SHEBOYGAN      CLOUDY    16   5  62 SW9       30.45F WCI   4
WEST BEND      CLOUDY    16   5  62 S3        30.44F
JUNEAU         FLURRIES  13   6  72 S6        30.44F WCI   4
$$

LSZ147-162-010600-
LAKE SUPERIOR

STATION/POSITION TIME  TEMP    WIND        PRES    WAVE
                       AIR SEA DIR/SP/G            HT/PER
                 (UTC) (F)     (DEG/KT/KT) (MB)    (FT/S)
DEVILS ISLAND    0500   16     210/ 11/ 16 1026.3F
PORT WING        0400   16     190/ 12/ 16 1025.7F
SAXON HARBOR     0400   17     200/  7/ 17 1026.1S
$$

LMZ867-665-643>646-010600-
LAKE MICHIGAN

STATION/POSITION TIME  TEMP    WIND        PRES    WAVE
                       AIR SEA DIR/SP/G            HT/PER
                 (UTC) (F)     (DEG/KT/KT) (MB)    (FT/S)
NORTHPORT PIER   0502   14     210/  2/  7 1029.8F
SISTER BAY       0328   14     210/  8/  9   N/A
KEWAUNEE LAKESHO 0406   16     220/  7/ 11 1030.5F
SHEBOYGAN LAKESH 0500   19     210/ 13/ 15 1032.9F
PORT WASHINGTON  0400   19     210/  7/ 11 1032.8S
MILWAUKEE LAKESH 0400   19     210/ 10/ 13   N/A
KENOSHA   LAKESH 0500   18     210/  7/  8 1031.8F
$$

TC  - TEMPERATURE IN CELSIUS
VSB - VISIBILITY IN STATUTE MILES
WCI - WIND CHILL INDEX
HX  - HEAT INDEX




USA.gov is the U.S. government's official web portal to all federal, state and local government web resources and services.